Location: Bothwell
(42.3833°S, 147.0000°E)
Time: 21:13:49
(UTC+11:00)

CUTE-I - Pass Details

Date: 30 September 2022
Orbit: 810 x 823 km, 98.7° (Epoch: 29 November)

Event Time Altitude Azimuth Distance (km) Brightness Sun altitude
Rises 18:37:55 0° 167° (SSE) 3,393 ? -4.7°
Reaches altitude 10° 18:40:17 10° 166° (SSE) 2,455 ? -5.1°
Maximum altitude 18:45:44 90° 235° (SW) 839 ? -6.1°
Drops below altitude 10° 18:51:09 10° 344° (NNW) 2,428 ? -7.1°
Sets 18:53:28 0° 344° (NNW) 3,353 ? -7.5°
